Wind_Speed
20 18 16 14 12 10 7 7 7 8 9 10 11 12 12 12 12 11 11 11 10 10 10 10 10 11 11 12 11 12 12 11 11 10 9 9 8 8 6 7 6 6 5
23 21 19 18 17 14 11 9 8 8 10 11 12 13 13 12 12 12 12 11 11 11 11 10 10 11 12 13 13 13 14 16 16 15 13 11 13 12 11 10 10 9 7
23 23 23 22 20 18 15 14 12 11 11 11 13 13 14 14 13 12 11 11 11 11 10 10 9 10 11 11 11 11 13 15 17 18 18 18 15 15 16 14 13 14 12
21 22 26 26 23 21 20 19 16 15 13 13 13 14 15 14 13 13 12 11 11 10 10 9 9 9 10 10 10 11 11 12 12 14 16 19 19 20 18 17 17 15 13
25 24 25 26 26 26 25 23 21 18 17 16 15 15 16 16 15 14 13 12 12 10 10 9 9 11 11 11 11 12 12 12 13 13 14 15 17 21 23 23 21 18 16
31 30 27 26 28 29 29 28 25 23 21 18 18 18 18 17 17 17 15 14 14 12 10 9 8 8 10 11 12 12 12 13 16 15 15 15 16 17 19 22 25 25 25
35 34 31 29 29 31 33 31 29 27 25 22 21 21 20 20 21 19 17 15 15 14 12 10 9 9 8 9 9 11 11 12 15 16 17 16 16 17 18 20 21 25 27
40 40 36 34 33 32 34 35 34 33 30 26 24 21 17 20 24 22 20 17 15 14 13 11 11 10 10 11 10 10 10 12 13 15 15 16 16 17 18 19 20 22 23
40 43 43 40 36 35 35 37 37 36 34 31 29 22 8 12 11 20 23 19 17 15 13 13 12 12 13 12 12 13 15 12 12 13 15 15 16 18 18 19 21 22 23
29 44 47 46 43 40 37 37 38 38 36 35 32 31 30 20 10 8 18 21 20 19 16 15 15 15 15 15 16 17 14 13 14 13 12 13 12 15 17 19 21 22 23
22 26 43 51 50 46 41 38 38 40 40 38 37 36 32 31 26 20 13 20 22 22 20 20 19 17 17 19 19 16 15 15 13 14 14 12 12 14 14 15 17 18 18
31 28 28 37 54 53 47 41 39 39 41 41 39 38 37 34 33 30 26 20 22 23 24 23 21 21 21 20 18 18 16 15 14 15 16 16 15 16 16 16 16 16 17
35 35 33 31 39 55 52 46 43 41 41 43 42 41 39 37 34 30 28 25 23 24 25 24 23 21 20 19 18 18 18 17 18 19 19 19 19 19 19 18 20 20 20
34 32 33 31 34 43 55 51 46 43 42 42 43 42 40 38 36 33 31 28 25 25 25 25 19 17 17 17 18 19 21 22 22 23 23 21 22 23 23 23 23 22 21
32 36 33 33 31 37 47 56 51 47 42 42 42 43 41 39 36 34 32 28 26 24 22 22 18 14 12 17 18 19 20 20 22 24 25 25 25 25 25 24 25 24 24
36 39 35 33 29 32 43 50 56 51 44 44 42 42 41 40 36 34 33 30 27 25 25 16 14 16 19 19 18 19 20 23 23 25 26 29 30 28 26 27 26 23 21
38 36 37 32 28 28 40 50 54 54 47 41 44 41 42 40 37 35 34 31 29 27 27 24 22 19 21 20 21 23 24 25 28 28 28 28 25 27 25 24 24 25 25
36 38 34 33 31 26 34 47 53 54 49 44 44 42 43 40 38 35 34 32 29 26 24 24 23 22 22 22 24 27 28 29 28 26 24 25 26 27 26 23 22 23 26
37 35 32 30 33 30 30 42 48 51 50 43 44 43 43 41 39 37 35 33 29 25 23 25 25 24 24 25 28 29 27 24 21 23 24 25 25 25 26 27 27 27 28
33 37 34 35 37 32 36 39 43 42 50 43 45 43 42 41 40 36 35 32 27 25 25 25 25 26 27 28 28 27 28 26 26 25 25 26 27 28 30 33 31 31 33
28 32 37 39 41 38 40 35 43 43 53 47 46 43 40 39 36 33 32 29 27 26 25 23 25 27 28 25 25 26 30 31 31 31 32 29 25 24 26 26 29 31 34
35 39 42 42 43 45 37 37 41 51 48 49 46 41 38 36 33 31 29 26 26 24 23 23 24 24 25 26 25 28 32 35 43 34 29 32 31 33 31 27 24 27 29
41 44 42 39 41 45 37 36 42 50 46 49 44 39 36 35 32 30 28 26 24 21 20 19 23 25 27 25 28 32 34 35 39 39 39 44 37 37 33 31 27 25 25
42 42 39 37 41 44 31 34 37 41 44 48 40 35 35 35 32 29 26 24 24 22 21 23 25 25 25 26 28 30 35 39 43 42 37 44 37 36 33 30 25 23 25
46 41 40 37 40 41 27 26 33 34 43 45 36 33 33 30 28 27 26 25 21 21 21 21 21 21 24 25 26 30 37 39 44 43 40 39 36 33 27 23 21 21 24
44 39 40 32 36 34 27 24 30 39 42 39 33 32 30 28 26 26 23 20 19 18 18 17 18 21 21 24 24 27 33 36 40 38 20 21 25 25 17 17 17 23 25
Wind_Direction
250 247 245 245 244 246 246 243 244 246 242 235 227 232 235 240 245 250 257 263 266 267 257 243 241 239 241 245 240 226 225 223 217 222 229 239 248 259 279 298 313 331 328
258 255 252 251 249 249 248 246 249 247 243 243 242 240 242 244 249 249 254 262 264 264 263 257 250 247 245 248 249 244 236 235 235 232 229 237 247 248 259 255 270 283 300
264 266 259 256 255 255 256 255 252 248 248 246 244 244 248 249 250 255 256 259 264 266 262 262 257 253 251 250 248 246 243 239 239 240 240 237 237 240 248 253 264 263 271
274 270 264 261 256 255 255 254 254 253 254 254 250 248 246 249 248 254 257 257 260 262 263 260 258 254 253 253 253 250 249 248 244 243 242 242 235 236 241 239 244 254 256
270 273 273 269 261 256 255 254 253 254 257 260 258 252 248 248 253 258 259 261 261 260 264 261 259 257 259 260 260 259 256 255 253 250 247 244 243 240 240 241 242 240 240
266 267 273 275 265 259 256 253 253 253 256 256 254 254 253 252 252 256 260 265 261 262 255 265 270 271 264 264 262 262 258 258 260 256 255 252 249 247 246 244 243 243 244
266 265 267 271 270 263 260 257 256 255 255 252 251 254 254 253 253 254 253 261 259 261 258 258 265 274 262 264 270 274 273 266 262 261 258 257 257 255 251 249 248 247 246
257 265 267 268 267 267 262 254 252 254 254 249 247 252 258 257 251 247 243 247 252 250 249 256 265 272 274 278 275 274 275 279 279 276 270 263 260 258 257 256 254 252 251
252 260 265 266 266 266 266 260 255 254 254 251 249 241 234 238 240 240 237 238 240 247 248 255 263 273 282 285 281 286 292 286 286 285 283 278 267 262 260 259 258 257 255
263 253 259 263 266 265 264 265 259 254 251 250 247 246 241 250 238 238 233 230 233 238 247 252 256 268 276 274 282 289 282 285 291 288 285 285 283 277 269 265 262 261 258
287 267 260 259 261 262 264 262 260 255 250 249 248 250 246 243 246 241 238 228 231 232 238 244 252 262 270 276 278 275 280 283 281 287 288 275 277 281 280 280 279 275 271
307 299 280 270 257 258 257 260 261 258 254 252 251 250 249 247 246 240 239 238 236 233 235 242 253 263 268 266 264 267 264 266 269 273 273 273 273 279 278 280 279 280 279
314 308 303 287 273 255 254 255 257 258 255 251 250 249 250 249 251 253 249 245 238 233 235 245 254 258 257 257 258 257 261 263 271 272 268 271 273 274 276 272 276 274 272
319 308 302 292 281 268 255 253 259 257 256 253 251 249 248 248 248 249 249 243 236 234 241 247 252 253 253 257 256 258 261 266 267 266 266 269 269 270 271 270 273 271 269
319 322 305 298 287 275 263 254 254 253 254 253 251 248 246 247 245 247 247 244 240 240 248 254 248 250 250 270 267 266 264 267 271 270 267 265 269 270 267 267 265 264 266
314 315 309 302 292 281 267 257 250 250 249 252 249 246 243 243 241 242 245 246 244 244 248 258 256 269 280 279 278 276 275 282 278 277 273 274 275 267 265 265 263 259 258
310 309 318 306 300 291 270 262 256 247 247 252 247 244 242 240 239 239 242 243 243 245 252 257 267 276 278 280 281 282 287 285 285 282 280 277 271 267 266 264 260 252 252
305 310 312 313 289 296 280 260 259 249 246 248 248 243 240 236 237 239 243 244 246 248 252 264 272 276 278 284 288 290 292 292 289 282 278 274 271 266 259 258 253 252 259
303 302 304 315 310 284 276 266 255 253 248 249 251 243 239 234 235 237 239 242 244 244 254 263 273 278 285 289 291 292 294 294 283 282 277 274 272 267 258 258 258 259 261
295 300 304 301 305 293 265 262 259 254 248 249 250 243 240 236 236 236 237 239 239 245 251 261 271 280 286 289 290 294 297 295 295 287 285 280 275 268 260 257 257 253 256
298 300 305 300 301 303 261 253 250 251 247 244 244 240 238 236 237 236 235 235 239 245 253 263 271 278 281 286 292 299 301 302 297 294 292 289 287 278 272 264 258 253 253
305 309 304 300 294 292 284 248 243 239 242 241 240 235 233 231 229 228 231 236 241 248 258 265 270 275 285 293 296 299 299 299 298 298 296 292 293 289 285 276 264 249 246
304 305 302 296 289 286 281 247 237 231 235 240 236 230 226 222 221 222 227 233 240 249 257 267 276 282 288 291 295 298 296 293 289 293 293 287 285 278 275 269 266 253 238
301 304 306 297 295 286 255 248 222 228 232 239 232 225 218 216 214 217 220 225 233 245 258 266 275 281 284 291 296 297 294 291 291 289 285 272 277 273 269 260 253 240 223
303 303 307 297 294 293 254 244 221 226 225 233 226 216 212 211 210 213 222 232 240 251 264 271 276 281 288 294 292 294 289 292 288 285 289 269 272 264 255 253 241 223 208
303 302 305 291 283 287 260 227 220 217 224 224 213 204 204 205 208 217 227 233 247 263 263 269 274 286 296 296 295 292 297 292 289 288 305 253 265 250 243 237 215 196 199
Height
1540 1541 1542 1542 1543 1543 1543 1542 1542 1542 1541 1541 1541 1541 1540 1540 1540 1541 1541 1540 1540 1539 1540 1540 1540 1541 1541 1542 1543 1544 1544 1545 1546 1546 1547 1548 1548 1548 1549 1549 1550 1549 1549
1536 1537 1539 1540 1541 1541 1541 1541 1541 1540 1540 1540 1540 1540 1539 1539 1539 1538 1539 1538 1538 1537 1537 1538 1538 1538 1538 1539 1539 1540 1541 1542 1542 1543 1545 1545 1546 1546 1547 1548 1548 1548 1548
1530 1532 1534 1536 1538 1539 1539 1539 1538 1538 1538 1538 1538 1537 1537 1537 1537 1537 1537 1536 1536 1535 1535 1536 1536 1535 1535 1536 1536 1537 1537 1538 1538 1539 1540 1541 1543 1544 1544 1545 1545 1545 1546
1526 1527 1529 1531 1534 1535 1536 1536 1536 1536 1535 1536 1535 1535 1535 1534 1534 1534 1534 1534 1534 1534 1533 1534 1534 1533 1533 1533 1533 1534 1534 1534 1534 1535 1536 1537 1538 1539 1540 1541 1542 1542 1543
1520 1522 1524 1526 1529 1530 1531 1532 1533 1533 1533 1532 1532 1532 1532 1532 1531 1531 1531 1532 1532 1531 1531 1531 1531 1531 1530 1530 1531 1531 1531 1531 1531 1532 1532 1533 1533 1534 1536 1537 1538 1539 1540
1515 1517 1519 1521 1523 1525 1527 1528 1529 1530 1530 1530 1530 1529 1528 1528 1528 1527 1528 1528 1528 1529 1528 1528 1528 1528 1528 1528 1527 1527 1528 1528 1527 1528 1528 1529 1529 1530 1530 1531 1532 1534 1535
1512 1513 1515 1516 1517 1518 1520 1524 1525 1526 1526 1527 1526 1525 1524 1524 1524 1524 1524 1524 1524 1525 1525 1525 1525 1525 1525 1525 1525 1524 1524 1524 1524 1524 1524 1524 1525 1526 1526 1527 1527 1528 1529
1510 1511 1509 1510 1512 1512 1514 1516 1518 1520 1522 1522 1522 1522 1521 1520 1518 1519 1520 1520 1521 1521 1522 1522 1522 1523 1522 1522 1522 1521 1521 1521 1520 1520 1519 1520 1521 1521 1521 1522 1522 1523 1524
1506 1505 1505 1506 1506 1507 1508 1509 1511 1513 1515 1518 1517 1519 1517 1514 1513 1514 1515 1516 1517 1517 1519 1518 1518 1519 1519 1518 1518 1518 1517 1517 1517 1516 1515 1515 1515 1516 1516 1516 1517 1517 1518
1497 1499 1498 1498 1499 1500 1501 1502 1504 1505 1508 1511 1512 1512 1512 1512 1511 1511 1511 1512 1513 1513 1514 1515 1515 1515 1515 1515 1515 1515 1514 1513 1513 1512 1512 1512 1511 1511 1511 1511 1511 1511 1512
1490 1489 1489 1490 1490 1491 1493 1495 1497 1498 1499 1502 1504 1506 1507 1507 1507 1508 1506 1507 1508 1509 1510 1511 1511 1511 1512 1511 1511 1511 1510 1509 1509 1509 1508 1508 1507 1507 1507 1507 1506 1506 1506
1480 1481 1479 1478 1480 1481 1484 1486 1488 1490 1492 1493 1496 1498 1500 1501 1500 1502 1501 1502 1503 1504 1505 1506 1506 1507 1507 1506 1506 1506 1506 1505 1505 1504 1504 1503 1503 1503 1502 1502 1502 1502 1501
1473 1472 1470 1468 1467 1470 1474 1477 1478 1480 1482 1484 1487 1489 1492 1494 1496 1498 1497 1497 1498 1499 1499 1500 1501 1502 1501 1501 1501 1501 1501 1501 1500 1499 1499 1499 1498 1498 1497 1497 1497 1497 1497
1466 1465 1463 1460 1459 1459 1463 1466 1468 1470 1472 1475 1478 1481 1483 1486 1490 1491 1491 1492 1493 1493 1493 1494 1495 1496 1497 1495 1495 1495 1495 1495 1494 1493 1492 1492 1492 1491 1491 1490 1490 1490 1491
1461 1458 1455 1452 1450 1449 1450 1455 1457 1459 1462 1465 1469 1472 1475 1478 1482 1484 1485 1486 1487 1486 1486 1487 1490 1491 1491 1491 1490 1489 1488 1488 1487 1485 1484 1484 1483 1483 1483 1483 1483 1484 1484
1454 1451 1447 1444 1441 1439 1440 1442 1446 1449 1452 1455 1459 1463 1467 1470 1474 1477 1479 1480 1481 1482 1481 1482 1484 1485 1485 1485 1484 1482 1481 1480 1479 1478 1476 1475 1474 1474 1474 1474 1474 1475 1476
1447 1444 1440 1436 1433 1429 1431 1432 1434 1438 1442 1445 1449 1454 1458 1463 1466 1470 1473 1474 1474 1475 1474 1477 1478 1479 1478 1478 1477 1476 1474 1472 1471 1469 1468 1466 1465 1465 1465 1465 1465 1467 1468
1441 1436 1432 1428 1426 1423 1423 1423 1425 1427 1432 1434 1440 1445 1450 1456 1458 1463 1466 1468 1469 1470 1470 1471 1472 1472 1472 1471 1469 1468 1466 1464 1461 1460 1458 1457 1456 1456 1456 1457 1457 1458 1460
1430 1427 1425 1422 1419 1417 1418 1418 1417 1419 1423 1425 1429 1435 1441 1447 1451 1455 1459 1462 1464 1465 1465 1465 1465 1465 1464 1464 1462 1459 1457 1455 1453 1452 1450 1449 1448 1447 1448 1448 1449 1449 1450
1420 1418 1415 1413 1410 1408 1409 1409 1409 1407 1412 1416 1420 1426 1432 1439 1444 1448 1452 1455 1458 1460 1460 1460 1459 1458 1457 1457 1454 1451 1447 1446 1443 1442 1441 1440 1439 1438 1437 1437 1437 1439 1441
1412 1410 1405 1401 1399 1398 1397 1397 1398 1398 1402 1405 1410 1417 1424 1432 1438 1442 1445 1449 1452 1454 1455 1454 1453 1452 1450 1449 1447 1444 1438 1435 1433 1432 1428 1426 1426 1426 1426 1426 1427 1428 1429
1403 1400 1395 1391 1387 1385 1381 1382 1387 1389 1391 1395 1401 1410 1417 1425 1430 1436 1439 1443 1447 1448 1449 1448 1447 1445 1443 1442 1440 1436 1431 1427 1421 1422 1418 1414 1415 1412 1412 1413 1415 1417 1418
1393 1389 1384 1380 1376 1371 1368 1368 1373 1377 1381 1387 1394 1403 1410 1417 1424 1429 1434 1438 1441 1442 1442 1442 1440 1438 1437 1435 1431 1427 1422 1418 1412 1411 1410 1402 1404 1400 1400 1401 1403 1406 1409
1383 1378 1373 1369 1363 1358 1355 1358 1362 1365 1373 1381 1387 1397 1404 1410 1417 1424 1429 1433 1435 1437 1437 1436 1434 1432 1430 1427 1423 1419 1413 1406 1401 1397 1397 1388 1390 1388 1390 1390 1393 1396 1400
1372 1367 1363 1357 1353 1346 1346 1346 1352 1358 1368 1375 1383 1392 1399 1406 1413 1419 1424 1428 1430 1431 1431 1430 1428 1426 1423 1420 1417 1411 1403 1398 1386 1381 1381 1376 1375 1375 1377 1380 1384 1388 1393
1361 1358 1353 1348 1343 1339 1338 1341 1347 1355 1364 1372 1379 1388 1395 1402 1409 1414 1419 1423 1425 1426 1425 1424 1422 1419 1417 1412 1408 1403 1394 1384 1377 1369 1364 1366 1365 1369 1370 1372 1377 1382 1389